Time,TemperatureF,DewpointF,PressureIn,WindDirection,WindDirectionDegrees,WindSpeedMPH,WindSpeedGustMPH,Humidity,HourlyPrecipIn,Conditions,Clouds,dailyrainin,SoftwareType,DateUTC
2013-05-18 00:02:00,72.1,69.7,29.87,East,93,0.0,3.0,92,0.00,,CLR,0.00,VWS V14.01,2013-05-18 05:02:00,
2013-05-18 00:07:00,72.1,69.7,29.87,East,88,2.0,3.0,92,0.00,,CLR,0.00,VWS V14.01,2013-05-18 05:07:00,
2013-05-18 00:12:00,72.0,69.6,29.87,East,88,2.0,3.0,92,0.00,,CLR,0.00,VWS V14.01,2013-05-18 05:12:00,
2013-05-18 00:17:00,72.0,69.6,29.86,ENE,66,0.0,3.0,92,0.00,,CLR,0.00,VWS V14.01,2013-05-18 05:17:00,
2013-05-18 00:22:00,72.0,69.9,29.86,East,89,2.0,5.0,93,0.00,,CLR,0.00,VWS V14.01,2013-05-18 05:22:00,
2013-05-18 00:27:00,72.1,70.0,29.86,ENE,72,0.0,7.0,93,0.00,,CLR,0.00,VWS V14.01,2013-05-18 05:27:00,
2013-05-18 00:32:00,72.0,69.6,29.86,ENE,76,0.0,7.0,92,0.00,,CLR,0.00,VWS V14.01,2013-05-18 05:32:00,
2013-05-18 00:37:00,72.0,69.6,29.86,East,80,2.0,7.0,92,0.00,,CLR,0.00,VWS V14.01,2013-05-18 05:37:00,
2013-05-18 00:42:00,71.8,69.7,29.86,East,80,0.0,7.0,93,0.00,,CLR,0.00,VWS V14.01,2013-05-18 05:42:00,
2013-05-18 00:47:00,71.6,69.5,29.86,East,92,0.0,7.0,93,0.00,,CLR,0.00,VWS V14.01,2013-05-18 05:47:00,
2013-05-18 00:52:00,71.5,69.4,29.86,ENE,71,1.0,7.0,93,0.00,,CLR,0.00,VWS V14.01,2013-05-18 05:52:00,
2013-05-18 00:57:00,71.5,69.7,29.86,ENE,72,0.0,7.0,94,0.00,,CLR,0.00,VWS V14.01,2013-05-18 05:57:00,
2013-05-18 01:02:00,71.5,70.0,29.85,East,82,1.0,2.0,95,0.00,,CLR,0.00,VWS V14.01,2013-05-18 06:02:00,
2013-05-18 01:07:00,71.5,70.0,29.85,ENE,75,0.0,5.0,95,0.00,,CLR,0.00,VWS V14.01,2013-05-18 06:07:00,
2013-05-18 01:12:00,71.3,70.1,29.85,ENE,71,3.0,5.0,96,0.00,,CLR,0.00,VWS V14.01,2013-05-18 06:12:00,
2013-05-18 01:17:00,71.3,70.1,29.85,East,80,2.0,5.0,96,0.00,,CLR,0.00,VWS V14.01,2013-05-18 06:17:00,
2013-05-18 01:22:00,71.1,69.9,29.85,ENE,71,5.0,5.0,96,0.00,,CLR,0.00,VWS V14.01,2013-05-18 06:22:00,
2013-05-18 01:27:00,71.1,70.2,29.85,East,80,1.0,6.0,97,0.00,,CLR,0.00,VWS V14.01,2013-05-18 06:27:00,
2013-05-18 01:32:00,71.1,69.9,29.85,ENE,76,0.0,6.0,96,0.00,,CLR,0.00,VWS V14.01,2013-05-18 06:32:00,
2013-05-18 01:37:00,71.1,70.5,29.85,ENE,78,1.0,6.0,98,0.00,,CLR,0.00,VWS V14.01,2013-05-18 06:37:00,
2013-05-18 01:42:00,70.9,70.3,29.85,East,90,0.0,7.0,98,0.00,,CLR,0.00,VWS V14.01,2013-05-18 06:42:00,
2013-05-18 01:47:00,70.9,70.6,29.84,ENE,69,5.0,7.0,99,0.00,,CLR,0.00,VWS V14.01,2013-05-18 06:47:00,
2013-05-18 01:52:00,70.9,70.6,29.84,East,83,2.0,8.0,99,0.00,,CLR,0.00,VWS V14.01,2013-05-18 06:52:00,
2013-05-18 01:57:00,70.9,70.6,29.84,ESE,102,0.0,8.0,99,0.00,,CLR,0.00,VWS V14.01,2013-05-18 06:57:00,
2013-05-18 02:03:00,70.9,70.9,29.84,ESE,103,1.0,3.0,100,0.00,,CLR,0.00,VWS V14.01,2013-05-18 07:03:00,
2013-05-18 02:08:00,70.9,70.9,29.84,East,99,0.0,5.0,100,0.00,,CLR,0.00,VWS V14.01,2013-05-18 07:08:00,
2013-05-18 02:13:00,70.9,70.9,29.84,SE,137,2.0,6.0,100,0.00,,CLR,0.00,VWS V14.01,2013-05-18 07:13:00,
2013-05-18 02:18:00,70.9,70.9,29.83,ENE,78,2.0,7.0,100,0.00,,CLR,0.00,VWS V14.01,2013-05-18 07:18:00,
2013-05-18 02:23:00,71.1,70.5,29.83,East,90,2.0,8.0,98,0.00,,CLR,0.00,VWS V14.01,2013-05-18 07:23:00,
2013-05-18 02:28:00,71.1,70.2,29.83,East,89,2.0,8.0,97,0.00,,CLR,0.00,VWS V14.01,2013-05-18 07:28:00,
2013-05-18 02:33:00,71.1,70.2,29.83,ESE,106,0.0,8.0,97,0.00,,CLR,0.00,VWS V14.01,2013-05-18 07:33:00,
2013-05-18 02:38:00,71.1,70.2,29.83,ESE,107,2.0,8.0,97,0.00,,CLR,0.00,VWS V14.01,2013-05-18 07:38:00,
2013-05-18 02:43:00,71.1,70.2,29.83,ESE,102,0.0,8.0,97,0.00,,CLR,0.00,VWS V14.01,2013-05-18 07:43:00,
2013-05-18 02:48:00,71.1,70.2,29.83,ESE,123,2.0,8.0,97,0.00,,CLR,0.00,VWS V14.01,2013-05-18 07:48:00,
2013-05-18 02:53:00,71.3,70.4,29.83,ESE,117,0.0,8.0,97,0.00,,CLR,0.00,VWS V14.01,2013-05-18 07:53:00,
2013-05-18 02:58:00,71.3,70.4,29.83,East,92,3.0,8.0,97,0.00,,CLR,0.00,VWS V14.01,2013-05-18 07:58:00,
2013-05-18 03:03:00,71.3,70.4,29.83,ENE,78,2.0,5.0,97,0.00,,,0.00,VWS V14.01,2013-05-18 08:03:00,
2013-05-18 03:08:00,71.1,70.2,29.83,ESE,103,0.0,5.0,97,0.00,,,0.00,VWS V14.01,2013-05-18 08:08:00,
2013-05-18 03:13:00,71.1,70.5,29.83,ENE,78,1.0,5.0,98,0.00,,,0.00,VWS V14.01,2013-05-18 08:13:00,
2013-05-18 03:18:00,71.1,70.5,29.83,East,88,3.0,5.0,98,0.00,,,0.00,VWS V14.01,2013-05-18 08:18:00,
2013-05-18 03:23:00,71.1,70.5,29.83,East,100,2.0,5.0,98,0.00,,,0.00,VWS V14.01,2013-05-18 08:23:00,
2013-05-18 03:28:00,71.1,70.5,29.83,East,80,3.0,6.0,98,0.00,,,0.00,VWS V14.01,2013-05-18 08:28:00,
2013-05-18 03:33:00,70.9,70.3,29.82,East,97,2.0,6.0,98,0.00,,,0.00,VWS V14.01,2013-05-18 08:33:00,
2013-05-18 03:38:00,70.9,70.3,29.82,East,86,2.0,6.0,98,0.00,,,0.00,VWS V14.01,2013-05-18 08:38:00,
2013-05-18 03:43:00,70.9,70.6,29.82,ESE,114,2.0,6.0,99,0.00,,,0.00,VWS V14.01,2013-05-18 08:43:00,
2013-05-18 03:48:00,70.9,70.6,29.82,East,89,0.0,6.0,99,0.00,,,0.00,VWS V14.01,2013-05-18 08:48:00,
2013-05-18 03:53:00,70.8,70.5,29.82,ENE,76,1.0,6.0,99,0.00,,,0.00,VWS V14.01,2013-05-18 08:53:00,
2013-05-18 03:58:00,70.9,70.6,29.82,ENE,69,0.0,6.0,99,0.00,,,0.00,VWS V14.01,2013-05-18 08:58:00,
2013-05-18 04:03:00,70.9,70.3,29.83,ENE,78,2.0,6.0,98,0.00,,,0.00,VWS V14.01,2013-05-18 09:03:00,
2013-05-18 04:08:00,71.1,70.5,29.83,East,93,0.0,6.0,98,0.00,,,0.00,VWS V14.01,2013-05-18 09:08:00,
2013-05-18 04:13:00,71.1,70.8,29.83,East,80,2.0,6.0,99,0.00,,,0.00,VWS V14.01,2013-05-18 09:13:00,
2013-05-18 04:18:00,71.3,70.7,29.84,East,80,0.0,6.0,98,0.00,,,0.00,VWS V14.01,2013-05-18 09:18:00,
2013-05-18 04:24:00,71.3,70.4,29.84,East,80,0.0,6.0,97,0.00,,,0.00,VWS V14.01,2013-05-18 09:24:00,
2013-05-18 04:29:00,71.3,70.4,29.84,East,80,0.0,6.0,97,0.00,,,0.00,VWS V14.01,2013-05-18 09:29:00,
2013-05-18 04:34:00,71.1,70.5,29.84,East,89,2.0,6.0,98,0.00,,,0.00,VWS V14.01,2013-05-18 09:34:00,
2013-05-18 04:39:00,70.9,70.3,29.84,East,90,3.0,6.0,98,0.00,,,0.00,VWS V14.01,2013-05-18 09:39:00,
2013-05-18 04:44:00,70.9,70.3,29.84,East,79,5.0,6.0,98,0.00,,,0.00,VWS V14.01,2013-05-18 09:44:00,
2013-05-18 04:49:00,70.8,69.9,29.84,ENE,76,3.0,6.0,97,0.00,,,0.00,VWS V14.01,2013-05-18 09:49:00,
2013-05-18 04:54:00,70.8,70.8,29.84,ENE,69,5.0,6.0,100,0.00,,,0.00,VWS V14.01,2013-05-18 09:54:00,
2013-05-18 04:59:00,70.6,70.6,29.84,East,86,2.0,6.0,100,0.00,,,0.00,VWS V14.01,2013-05-18 09:59:00,
2013-05-18 05:04:00,70.4,70.1,29.84,East,83,5.0,7.0,99,0.00,,,0.00,VWS V14.01,2013-05-18 10:04:00,
2013-05-18 05:09:00,70.3,70.3,29.84,East,99,3.0,7.0,100,0.00,,,0.00,VWS V14.01,2013-05-18 10:09:00,
2013-05-18 05:14:00,70.1,70.1,29.84,East,85,5.0,10.0,100,0.00,,,0.00,VWS V14.01,2013-05-18 10:14:00,
2013-05-18 05:19:00,69.9,69.9,29.84,East,92,2.0,10.0,100,0.00,,,0.00,VWS V14.01,2013-05-18 10:19:00,
2013-05-18 05:24:00,69.9,69.9,29.84,ENE,76,0.0,10.0,100,0.00,,,0.00,VWS V14.01,2013-05-18 10:24:00,
2013-05-18 05:29:00,69.9,69.9,29.83,ENE,75,5.0,10.0,100,0.00,,,0.00,VWS V14.01,2013-05-18 10:29:00,
2013-05-18 05:34:00,69.9,69.9,29.83,East,99,5.0,10.0,100,0.00,,,0.00,VWS V14.01,2013-05-18 10:34:00,
2013-05-18 05:39:00,69.9,69.9,29.83,East,79,3.0,10.0,100,0.00,,,0.00,VWS V14.01,2013-05-18 10:39:00,
2013-05-18 05:44:00,69.9,69.9,29.83,ENE,72,3.0,10.0,100,0.00,,,0.00,VWS V14.01,2013-05-18 10:44:00,
2013-05-18 05:49:00,70.1,70.1,29.83,ENE,78,5.0,10.0,100,0.00,,,0.00,VWS V14.01,2013-05-18 10:49:00,
2013-05-18 05:54:00,70.1,70.1,29.83,ENE,66,7.0,10.0,100,0.00,,,0.00,VWS V14.01,2013-05-18 10:54:00,
2013-05-18 05:59:00,70.1,70.1,29.84,ENE,71,2.0,10.0,100,0.00,,,0.00,VWS V14.01,2013-05-18 10:59:00,
2013-05-18 06:04:00,70.3,70.3,29.84,East,95,2.0,10.0,100,0.00,,,0.00,VWS V14.01,2013-05-18 11:04:00,
2013-05-18 06:09:00,70.3,70.3,29.84,East,90,5.0,10.0,100,0.00,,,0.00,VWS V14.01,2013-05-18 11:09:00,
2013-05-18 06:14:00,70.3,70.3,29.84,East,95,5.0,10.0,100,0.00,,,0.00,VWS V14.01,2013-05-18 11:14:00,
2013-05-18 06:20:00,70.3,70.3,29.84,East,80,2.0,10.0,100,0.00,,,0.00,VWS V14.01,2013-05-18 11:20:00,
2013-05-18 06:25:00,70.3,70.3,29.84,East,86,2.0,10.0,100,0.00,,,0.00,VWS V14.01,2013-05-18 11:25:00,
2013-05-18 06:30:00,70.3,70.3,29.84,East,86,7.0,10.0,100,0.00,,,0.00,VWS V14.01,2013-05-18 11:30:00,
2013-05-18 06:35:00,70.4,70.4,29.84,East,90,2.0,10.0,100,0.00,,,0.00,VWS V14.01,2013-05-18 11:35:00,
2013-05-18 06:40:00,70.6,70.6,29.84,ESE,104,5.0,10.0,100,0.00,,,0.00,VWS V14.01,2013-05-18 11:40:00,
2013-05-18 06:45:00,70.6,70.3,29.84,SE,126,2.0,10.0,99,0.00,,,0.00,VWS V14.01,2013-05-18 11:45:00,
2013-05-18 06:50:00,70.8,70.8,29.84,East,96,1.0,10.0,100,0.00,,,0.00,VWS V14.01,2013-05-18 11:50:00,
2013-05-18 06:55:00,70.9,70.9,29.84,ENE,66,3.0,10.0,100,0.00,,,0.00,VWS V14.01,2013-05-18 11:55:00,
2013-05-18 07:00:00,71.1,70.8,29.85,ENE,72,2.0,10.0,99,0.00,,,0.00,VWS V14.01,2013-05-18 12:00:00,
2013-05-18 07:05:00,71.1,70.8,29.85,ESE,109,5.0,10.0,99,0.00,,,0.00,VWS V14.01,2013-05-18 12:05:00,
2013-05-18 07:10:00,71.3,71.3,29.85,East,97,3.0,10.0,100,0.00,,,0.00,VWS V14.01,2013-05-18 12:10:00,
2013-05-18 07:15:00,71.5,70.6,29.84,ESE,123,5.0,10.0,97,0.00,,,0.00,VWS V14.01,2013-05-18 12:15:00,
2013-05-18 07:20:00,71.6,71.0,29.84,ENE,76,3.0,10.0,98,0.00,,,0.00,VWS V14.01,2013-05-18 12:20:00,
2013-05-18 07:25:00,71.8,71.2,29.84,NNE,32,5.0,10.0,98,0.00,,,0.00,VWS V14.01,2013-05-18 12:25:00,
2013-05-18 07:30:00,72.0,71.1,29.84,East,90,5.0,10.0,97,0.00,,,0.00,VWS V14.01,2013-05-18 12:30:00,
2013-05-18 07:35:00,72.1,70.9,29.84,East,97,0.0,10.0,96,0.00,,,0.00,VWS V14.01,2013-05-18 12:35:00,
2013-05-18 07:40:00,72.3,71.1,29.84,East,85,2.0,10.0,96,0.00,,,0.00,VWS V14.01,2013-05-18 12:40:00,
2013-05-18 07:45:00,72.5,71.3,29.84,East,86,3.0,10.0,96,0.00,,,0.00,VWS V14.01,2013-05-18 12:45:00,
2013-05-18 07:50:00,72.7,71.5,29.84,ESE,106,2.0,10.0,96,0.00,,,0.00,VWS V14.01,2013-05-18 12:50:00,
2013-05-18 07:55:00,73.0,71.5,29.84,ENE,64,5.0,10.0,95,0.00,,,0.00,VWS V14.01,2013-05-18 12:55:00,
2013-05-18 08:00:00,73.2,71.7,29.84,SE,130,7.0,7.0,95,0.00,,,0.00,VWS V14.01,2013-05-18 13:00:00,
2013-05-18 08:05:00,73.3,71.5,29.84,ESE,120,5.0,7.0,94,0.00,,,0.00,VWS V14.01,2013-05-18 13:05:00,
2013-05-18 08:10:00,73.3,71.5,29.84,ESE,107,3.0,8.0,94,0.00,,,0.00,VWS V14.01,2013-05-18 13:10:00,
2013-05-18 08:15:00,73.5,71.4,29.83,SE,130,7.0,10.0,93,0.00,,,0.00,VWS V14.01,2013-05-18 13:15:00,
2013-05-18 08:20:00,73.7,71.6,29.83,East,90,1.0,10.0,93,0.00,,,0.00,VWS V14.01,2013-05-18 13:20:00,
2013-05-18 08:25:00,73.9,71.4,29.83,SE,126,10.0,10.0,92,0.00,,,0.00,VWS V14.01,2013-05-18 13:25:00,
2013-05-18 08:31:00,74.0,71.8,29.84,ESE,107,0.0,10.0,93,0.00,,,0.00,VWS V14.01,2013-05-18 13:31:00,
2013-05-18 08:36:00,74.0,71.8,29.84,ESE,112,10.0,10.0,93,0.00,,,0.00,VWS V14.01,2013-05-18 13:36:00,
2013-05-18 08:41:00,74.2,71.7,29.84,SE,130,6.0,10.0,92,0.00,,,0.00,VWS V14.01,2013-05-18 13:41:00,
2013-05-18 08:46:00,74.4,71.6,29.84,SE,130,7.0,10.0,91,0.00,,,0.00,VWS V14.01,2013-05-18 13:46:00,
2013-05-18 08:51:00,74.4,71.9,29.84,East,83,2.0,17.0,92,0.00,,,0.00,VWS V14.01,2013-05-18 13:51:00,
2013-05-18 08:56:00,74.6,71.5,29.84,SSE,157,7.0,17.0,90,0.00,,,0.00,VWS V14.01,2013-05-18 13:56:00,
2013-05-18 09:01:00,74.6,71.5,29.85,SE,143,5.0,5.0,90,0.00,,,0.00,VWS V14.01,2013-05-18 14:01:00,
2013-05-18 09:06:00,74.6,71.8,29.85,NE,45,2.0,11.0,91,0.00,,,0.00,VWS V14.01,2013-05-18 14:06:00,
2013-05-18 09:11:00,74.7,71.9,29.85,SSE,165,6.0,14.0,91,0.00,,,0.00,VWS V14.01,2013-05-18 14:11:00,
2013-05-18 09:16:00,74.9,71.8,29.85,SSE,155,5.0,14.0,90,0.00,,,0.00,VWS V14.01,2013-05-18 14:16:00,
2013-05-18 09:21:00,74.9,72.4,29.85,East,79,3.0,14.0,92,0.00,,,0.00,VWS V14.01,2013-05-18 14:21:00,
2013-05-18 09:26:00,75.1,71.6,29.85,SSE,148,1.0,14.0,89,0.00,,,0.00,VWS V14.01,2013-05-18 14:26:00,
2013-05-18 09:31:00,75.3,72.5,29.85,ENE,64,0.0,14.0,91,0.00,,,0.00,VWS V14.01,2013-05-18 14:31:00,
2013-05-18 09:36:00,75.4,72.3,29.85,South,169,2.0,14.0,90,0.00,,,0.00,VWS V14.01,2013-05-18 14:36:00,
2013-05-18 09:41:00,75.4,71.9,29.85,SE,131,0.0,14.0,89,0.00,,,0.00,VWS V14.01,2013-05-18 14:41:00,
2013-05-18 09:46:00,75.6,72.5,29.85,South,191,0.0,14.0,90,0.00,,,0.00,VWS V14.01,2013-05-18 14:46:00,
2013-05-18 09:51:00,75.8,72.0,29.85,SE,140,0.0,14.0,88,0.00,,,0.00,VWS V14.01,2013-05-18 14:51:00,
2013-05-18 09:56:00,76.0,72.2,29.85,NNW,328,2.0,14.0,88,0.00,,,0.00,VWS V14.01,2013-05-18 14:56:00,
2013-05-18 10:01:00,76.1,72.3,29.85,South,181,0.0,6.0,88,0.00,,,0.00,VWS V14.01,2013-05-18 15:01:00,
2013-05-18 10:06:00,76.1,71.9,29.85,SE,137,1.0,10.0,87,0.00,,,0.00,VWS V14.01,2013-05-18 15:06:00,
2013-05-18 10:11:00,76.3,71.8,29.85,ESE,123,1.0,10.0,86,0.00,,,0.00,VWS V14.01,2013-05-18 15:11:00,
2013-05-18 10:16:00,76.5,72.0,29.85,SW,219,2.0,10.0,86,0.00,,,0.00,VWS V14.01,2013-05-18 15:16:00,
2013-05-18 10:21:00,76.8,72.3,29.85,South,169,11.0,11.0,86,0.00,,,0.00,VWS V14.01,2013-05-18 15:21:00,
2013-05-18 10:26:00,77.0,71.8,29.85,SW,226,6.0,11.0,84,0.00,,,0.00,VWS V14.01,2013-05-18 15:26:00,
2013-05-18 10:31:00,77.2,72.0,29.85,East,88,0.0,11.0,84,0.00,,,0.00,VWS V14.01,2013-05-18 15:31:00,
2013-05-18 10:37:00,77.4,72.2,29.85,SSE,150,2.0,11.0,84,0.00,,,0.00,VWS V14.01,2013-05-18 15:37:00,
2013-05-18 10:42:00,77.6,72.0,29.85,SE,144,6.0,11.0,83,0.00,,,0.00,VWS V14.01,2013-05-18 15:42:00,
2013-05-18 10:47:00,77.7,72.1,29.85,ESE,113,0.0,11.0,83,0.00,,,0.00,VWS V14.01,2013-05-18 15:47:00,
2013-05-18 10:52:00,77.9,72.3,29.85,ESE,120,0.0,11.0,83,0.00,,,0.00,VWS V14.01,2013-05-18 15:52:00,
2013-05-18 10:57:00,78.3,72.7,29.85,SE,144,0.0,11.0,83,0.00,,,0.00,VWS V14.01,2013-05-18 15:57:00,
2013-05-18 11:02:00,78.6,72.3,29.85,East,97,0.0,5.0,81,0.00,,,0.00,VWS V14.01,2013-05-18 16:02:00,
2013-05-18 11:07:00,78.6,72.3,29.85,SSE,168,5.0,8.0,81,0.00,,,0.00,VWS V14.01,2013-05-18 16:07:00,
2013-05-18 11:12:00,78.6,72.3,29.85,SSW,205,0.0,11.0,81,0.00,,,0.00,VWS V14.01,2013-05-18 16:12:00,
2013-05-18 11:17:00,78.8,72.1,29.85,SE,128,5.0,11.0,80,0.00,,,0.00,VWS V14.01,2013-05-18 16:17:00,
2013-05-18 11:22:00,79.0,72.3,29.85,East,85,0.0,11.0,80,0.00,,,0.00,VWS V14.01,2013-05-18 16:22:00,
2013-05-18 11:27:00,79.6,72.9,29.85,SSE,164,2.0,12.0,80,0.00,,,0.00,VWS V14.01,2013-05-18 16:27:00,
2013-05-18 11:32:00,79.8,72.3,29.85,South,179,2.0,12.0,78,0.00,,,0.00,VWS V14.01,2013-05-18 16:32:00,
2013-05-18 11:37:00,80.3,72.8,29.85,East,83,0.0,12.0,78,0.00,,,0.00,VWS V14.01,2013-05-18 16:37:00,
2013-05-18 11:42:00,80.5,72.2,29.85,East,89,3.0,12.0,76,0.00,,,0.00,VWS V14.01,2013-05-18 16:42:00,
2013-05-18 11:47:00,80.9,72.6,29.84,ESE,117,6.0,12.0,76,0.00,,,0.00,VWS V14.01,2013-05-18 16:47:00,
2013-05-18 11:52:00,81.1,72.8,29.84,SE,144,1.0,12.0,76,0.00,,,0.00,VWS V14.01,2013-05-18 16:52:00,
2013-05-18 11:57:00,81.1,72.8,29.84,SW,219,2.0,12.0,76,0.00,,,0.00,VWS V14.01,2013-05-18 16:57:00,
2013-05-18 12:02:00,81.4,72.7,29.84,NE,44,0.0,5.0,75,0.00,,,0.00,VWS V14.01,2013-05-18 17:02:00,
2013-05-18 12:07:00,82.0,72.9,29.84,NNW,346,2.0,7.0,74,0.00,,,0.00,VWS V14.01,2013-05-18 17:07:00,
2013-05-18 12:12:00,82.2,73.5,29.84,East,93,2.0,7.0,75,0.00,,,0.00,VWS V14.01,2013-05-18 17:12:00,
2013-05-18 12:17:00,82.4,73.3,29.83,East,89,5.0,12.0,74,0.00,,,0.00,VWS V14.01,2013-05-18 17:17:00,
2013-05-18 12:22:00,82.4,72.9,29.83,South,175,2.0,12.0,73,0.00,,,0.00,VWS V14.01,2013-05-18 17:22:00,
2013-05-18 12:27:00,82.4,73.3,29.83,SE,134,3.0,12.0,74,0.00,,,0.00,VWS V14.01,2013-05-18 17:27:00,
2013-05-18 12:32:00,82.6,73.1,29.83,SSE,152,5.0,12.0,73,0.00,,,0.00,VWS V14.01,2013-05-18 17:32:00,
2013-05-18 12:38:00,83.2,73.7,29.83,SSW,203,5.0,12.0,73,0.00,,,0.00,VWS V14.01,2013-05-18 17:38:00,
2013-05-18 12:43:00,83.6,74.0,29.83,ESE,103,0.0,12.0,73,0.00,,,0.00,VWS V14.01,2013-05-18 17:43:00,
2013-05-18 12:48:00,83.6,74.0,29.83,ESE,117,2.0,12.0,73,0.00,,,0.00,VWS V14.01,2013-05-18 17:48:00,
2013-05-18 12:53:00,83.8,74.6,29.83,SSE,168,0.0,12.0,74,0.00,,,0.00,VWS V14.01,2013-05-18 17:53:00,
2013-05-18 12:58:00,84.1,74.1,29.83,South,174,3.0,12.0,72,0.00,,,0.00,VWS V14.01,2013-05-18 17:58:00,
2013-05-18 13:03:00,84.5,73.7,29.81,West,267,2.0,7.0,70,0.00,,,0.00,VWS V14.01,2013-05-18 18:03:00,
2013-05-18 13:08:00,84.9,73.6,29.81,SSW,213,2.0,8.0,69,0.00,,,0.00,VWS V14.01,2013-05-18 18:08:00,
2013-05-18 13:13:00,84.9,73.6,29.81,SE,137,5.0,8.0,69,0.00,,,0.00,VWS V14.01,2013-05-18 18:13:00,
2013-05-18 13:18:00,85.1,73.8,29.81,SE,134,0.0,12.0,69,0.00,,,0.00,VWS V14.01,2013-05-18 18:18:00,
2013-05-18 13:23:00,84.9,73.2,29.81,SSE,154,6.0,12.0,68,0.00,,,0.00,VWS V14.01,2013-05-18 18:23:00,
2013-05-18 13:28:00,84.0,72.3,29.81,SSE,155,2.0,13.0,68,0.00,,,0.00,VWS V14.01,2013-05-18 18:28:00,
2013-05-18 13:33:00,83.8,72.6,29.80,SW,217,3.0,13.0,69,0.00,,,0.00,VWS V14.01,2013-05-18 18:33:00,
2013-05-18 13:38:00,84.1,72.4,29.80,SW,224,0.0,13.0,68,0.00,,,0.00,VWS V14.01,2013-05-18 18:38:00,
2013-05-18 13:43:00,84.0,73.2,29.80,East,83,3.0,13.0,70,0.00,,,0.00,VWS V14.01,2013-05-18 18:43:00,
2013-05-18 13:48:00,83.4,73.0,29.80,SE,134,0.0,13.0,71,0.00,,,0.00,VWS V14.01,2013-05-18 18:48:00,
2013-05-18 13:53:00,83.0,73.5,29.80,ENE,75,3.0,13.0,73,0.00,,,0.00,VWS V14.01,2013-05-18 18:53:00,
2013-05-18 13:58:00,82.8,72.4,29.80,ENE,64,7.0,13.0,71,0.00,,,0.00,VWS V14.01,2013-05-18 18:58:00,
2013-05-18 14:03:00,82.0,71.7,29.80,SSE,160,5.0,13.0,71,0.00,,BKN250,0.00,VWS V14.01,2013-05-18 19:03:00,
2013-05-18 14:08:00,81.4,71.1,29.80,ESE,117,6.0,13.0,71,0.00,,BKN250,0.00,VWS V14.01,2013-05-18 19:08:00,
2013-05-18 14:13:00,81.1,72.0,29.80,East,89,5.0,13.0,74,0.00,,BKN250,0.00,VWS V14.01,2013-05-18 19:13:00,
2013-05-18 14:18:00,80.9,72.6,29.80,South,189,0.0,13.0,76,0.00,,BKN250,0.00,VWS V14.01,2013-05-18 19:18:00,
2013-05-18 14:23:00,80.7,72.0,29.80,East,99,1.0,13.0,75,0.00,,BKN250,0.00,VWS V14.01,2013-05-18 19:23:00,
2013-05-18 14:28:00,80.7,72.0,29.80,East,95,2.0,13.0,75,0.00,,BKN250,0.00,VWS V14.01,2013-05-18 19:28:00,
2013-05-18 14:33:00,80.3,72.1,29.80,East,93,5.0,13.0,76,0.00,,BKN250,0.00,VWS V14.01,2013-05-18 19:33:00,
2013-05-18 14:38:00,80.5,72.6,29.80,SW,234,0.0,13.0,77,0.00,,BKN250,0.00,VWS V14.01,2013-05-18 19:38:00,
2013-05-18 14:43:00,80.5,72.2,29.80,SE,145,5.0,13.0,76,0.00,,BKN250,0.00,VWS V14.01,2013-05-18 19:43:00,
2013-05-18 14:49:00,80.7,71.7,29.79,SE,130,2.0,13.0,74,0.00,,BKN250,0.00,VWS V14.01,2013-05-18 19:49:00,
2013-05-18 14:54:00,80.7,71.7,29.79,SSW,196,3.0,13.0,74,0.00,,BKN250,0.00,VWS V14.01,2013-05-18 19:54:00,
2013-05-18 14:59:00,80.9,71.8,29.79,SW,215,0.0,13.0,74,0.00,,BKN250,0.00,VWS V14.01,2013-05-18 19:59:00,
2013-05-18 15:04:00,81.2,71.3,29.79,SE,138,7.0,8.0,72,0.00,,,0.00,VWS V14.01,2013-05-18 20:04:00,
2013-05-18 15:09:00,81.6,72.5,29.79,ENE,64,5.0,8.0,74,0.00,,,0.00,VWS V14.01,2013-05-18 20:09:00,
2013-05-18 15:14:00,81.8,72.3,29.79,ESE,103,7.0,10.0,73,0.00,,,0.00,VWS V14.01,2013-05-18 20:14:00,
2013-05-18 15:19:00,82.2,72.7,29.78,East,79,5.0,10.0,73,0.00,,,0.00,VWS V14.01,2013-05-18 20:19:00,
2013-05-18 15:24:00,82.6,73.1,29.78,ESE,104,5.0,10.0,73,0.00,,,0.00,VWS V14.01,2013-05-18 20:24:00,
2013-05-18 15:29:00,82.8,73.3,29.78,East,82,0.0,10.0,73,0.00,,,0.00,VWS V14.01,2013-05-18 20:29:00,
2013-05-18 15:34:00,83.2,72.0,29.77,East,82,2.0,10.0,69,0.00,,,0.00,VWS V14.01,2013-05-18 20:34:00,
2013-05-18 15:39:00,83.6,72.4,29.77,ENE,72,3.0,10.0,69,0.00,,,0.00,VWS V14.01,2013-05-18 20:39:00,
2013-05-18 15:44:00,83.8,73.0,29.77,SSE,158,5.0,11.0,70,0.00,,,0.00,VWS V14.01,2013-05-18 20:44:00,
2013-05-18 15:49:00,84.1,73.3,29.77,East,89,2.0,11.0,70,0.00,,,0.00,VWS V14.01,2013-05-18 20:49:00,
2013-05-18 15:54:00,84.5,74.1,29.77,ENE,78,7.0,12.0,71,0.00,,,0.00,VWS V14.01,2013-05-18 20:54:00,
2013-05-18 15:59:00,84.7,73.0,29.76,SSW,203,7.0,12.0,68,0.00,,,0.00,VWS V14.01,2013-05-18 20:59:00,
2013-05-18 16:04:00,84.9,73.6,29.76,SSE,165,5.0,10.0,69,0.00,,,0.00,VWS V14.01,2013-05-18 21:04:00,
2013-05-18 16:09:00,85.3,73.6,29.76,ENE,71,2.0,10.0,68,0.00,,,0.00,VWS V14.01,2013-05-18 21:09:00,
2013-05-18 16:14:00,85.5,73.3,29.76,SE,137,2.0,12.0,67,0.00,,,0.00,VWS V14.01,2013-05-18 21:14:00,
2013-05-18 16:19:00,85.7,72.6,29.76,SE,144,13.0,13.0,65,0.00,,,0.00,VWS V14.01,2013-05-18 21:19:00,
2013-05-18 16:24:00,85.9,74.1,29.76,ENE,78,1.0,13.0,68,0.00,,,0.00,VWS V14.01,2013-05-18 21:24:00,
2013-05-18 16:29:00,86.3,74.5,29.76,SE,143,10.0,13.0,68,0.00,,,0.00,VWS V14.01,2013-05-18 21:29:00,
2013-05-18 16:34:00,86.5,73.3,29.76,SSE,148,2.0,13.0,65,0.00,,,0.00,VWS V14.01,2013-05-18 21:34:00,
2013-05-18 16:39:00,86.5,73.8,29.76,East,96,10.0,13.0,66,0.00,,,0.00,VWS V14.01,2013-05-18 21:39:00,
2013-05-18 16:44:00,86.3,72.7,29.76,SSE,158,1.0,13.0,64,0.00,,,0.00,VWS V14.01,2013-05-18 21:44:00,
2013-05-18 16:49:00,86.5,73.8,29.76,SE,128,11.0,13.0,66,0.00,,,0.00,VWS V14.01,2013-05-18 21:49:00,
2013-05-18 16:54:00,86.3,73.6,29.76,SE,136,5.0,13.0,66,0.00,,,0.00,VWS V14.01,2013-05-18 21:54:00,
2013-05-18 16:59:00,86.3,73.2,29.75,SW,223,5.0,13.0,65,0.00,,,0.00,VWS V14.01,2013-05-18 21:59:00,
2013-05-18 17:05:00,86.3,73.2,29.75,East,83,5.0,12.0,65,0.00,,,0.00,VWS V14.01,2013-05-18 22:05:00,
2013-05-18 17:10:00,86.5,73.3,29.75,ESE,116,0.0,12.0,65,0.00,,,0.00,VWS V14.01,2013-05-18 22:10:00,
2013-05-18 17:15:00,87.0,73.8,29.75,SSE,154,2.0,12.0,65,0.00,,,0.00,VWS V14.01,2013-05-18 22:15:00,
2013-05-18 17:20:00,86.5,73.3,29.75,SE,133,2.0,12.0,65,0.00,,,0.00,VWS V14.01,2013-05-18 22:20:00,
2013-05-18 17:25:00,86.5,72.9,29.75,East,96,5.0,12.0,64,0.00,,,0.00,VWS V14.01,2013-05-18 22:25:00,
2013-05-18 17:30:00,86.5,73.3,29.75,East,80,5.0,12.0,65,0.00,,,0.00,VWS V14.01,2013-05-18 22:30:00,
2013-05-18 17:35:00,86.5,72.4,29.75,East,96,5.0,12.0,63,0.00,,,0.00,VWS V14.01,2013-05-18 22:35:00,
2013-05-18 17:40:00,86.5,72.9,29.75,South,185,0.0,12.0,64,0.00,,,0.00,VWS V14.01,2013-05-18 22:40:00,
2013-05-18 17:45:00,86.5,73.3,29.75,East,93,6.0,12.0,65,0.00,,,0.00,VWS V14.01,2013-05-18 22:45:00,
2013-05-18 17:50:00,86.3,73.2,29.75,East,99,2.0,13.0,65,0.00,,,0.00,VWS V14.01,2013-05-18 22:50:00,
2013-05-18 17:55:00,86.3,72.7,29.75,SE,124,2.0,13.0,64,0.00,,,0.00,VWS V14.01,2013-05-18 22:55:00,
2013-05-18 18:00:00,86.3,72.7,29.74,NNE,25,2.0,13.0,64,0.00,,,0.00,VWS V14.01,2013-05-18 23:00:00,
2013-05-18 18:05:00,86.3,72.2,29.74,ENE,78,5.0,11.0,63,0.00,,,0.00,VWS V14.01,2013-05-18 23:05:00,
2013-05-18 18:10:00,86.1,72.0,29.74,SSE,158,12.0,17.0,63,0.00,,,0.00,VWS V14.01,2013-05-18 23:10:00,
2013-05-18 18:15:00,86.1,72.5,29.73,SE,126,5.0,17.0,64,0.00,,,0.00,VWS V14.01,2013-05-18 23:15:00,
2013-05-18 18:20:00,85.9,71.8,29.73,NNE,24,5.0,17.0,63,0.00,,,0.00,VWS V14.01,2013-05-18 23:20:00,
2013-05-18 18:25:00,85.9,72.8,29.73,ENE,71,0.0,17.0,65,0.00,,,0.00,VWS V14.01,2013-05-18 23:25:00,
2013-05-18 18:30:00,85.9,72.8,29.72,ENE,61,7.0,17.0,65,0.00,,,0.00,VWS V14.01,2013-05-18 23:30:00,
2013-05-18 18:35:00,85.7,72.6,29.72,ESE,109,7.0,17.0,65,0.00,,,0.00,VWS V14.01,2013-05-18 23:35:00,
2013-05-18 18:40:00,85.7,72.6,29.72,East,92,5.0,17.0,65,0.00,,,0.00,VWS V14.01,2013-05-18 23:40:00,
2013-05-18 18:45:00,85.5,73.3,29.72,SE,127,5.0,17.0,67,0.00,,,0.00,VWS V14.01,2013-05-18 23:45:00,
2013-05-18 18:50:00,85.3,72.7,29.72,South,179,6.0,17.0,66,0.00,,,0.00,VWS V14.01,2013-05-18 23:50:00,
2013-05-18 18:55:00,85.1,72.0,29.72,NE,42,1.0,17.0,65,0.00,,,0.00,VWS V14.01,2013-05-18 23:55:00,
2013-05-18 19:00:00,85.1,72.5,29.72,West,263,3.0,5.0,66,0.00,,,0.00,VWS V14.01,2013-05-19 00:00:00,
2013-05-18 19:05:00,84.9,71.4,29.72,SSW,202,3.0,12.0,64,0.00,,,0.00,VWS V14.01,2013-05-19 00:05:00,
2013-05-18 19:10:00,84.5,71.9,29.72,ENE,78,2.0,14.0,66,0.00,,,0.00,VWS V14.01,2013-05-19 00:10:00,
2013-05-18 19:15:00,84.0,71.4,29.73,SSE,155,3.0,17.0,66,0.00,,,0.00,VWS V14.01,2013-05-19 00:15:00,
2013-05-18 19:20:00,83.8,71.7,29.73,SSW,196,11.0,17.0,67,0.00,,,0.00,VWS V14.01,2013-05-19 00:20:00,
2013-05-18 19:26:00,83.4,71.7,29.73,North,10,1.0,17.0,68,0.00,,,0.00,VWS V14.01,2013-05-19 00:26:00,
2013-05-18 19:31:00,83.4,71.7,29.73,SE,126,6.0,17.0,68,0.00,,,0.00,VWS V14.01,2013-05-19 00:31:00,
2013-05-18 19:36:00,83.2,71.1,29.73,North,0,1.0,17.0,67,0.00,,,0.00,VWS V14.01,2013-05-19 00:36:00,
2013-05-18 19:41:00,83.0,70.9,29.73,SE,126,12.0,17.0,67,0.00,,,0.00,VWS V14.01,2013-05-19 00:41:00,
2013-05-18 19:46:00,83.0,71.4,29.74,ESE,113,5.0,17.0,68,0.00,,,0.00,VWS V14.01,2013-05-19 00:46:00,
2013-05-18 19:51:00,82.8,70.7,29.74,South,181,5.0,17.0,67,0.00,,,0.00,VWS V14.01,2013-05-19 00:51:00,
2013-05-18 19:56:00,82.6,70.5,29.74,ESE,113,2.0,17.0,67,0.00,,,0.00,VWS V14.01,2013-05-19 00:56:00,
2013-05-18 20:01:00,82.4,70.3,29.74,NW,305,1.0,6.0,67,0.00,,,0.00,VWS V14.01,2013-05-19 01:01:00,
2013-05-18 20:06:00,82.4,70.3,29.74,SE,128,0.0,12.0,67,0.00,,,0.00,VWS V14.01,2013-05-19 01:06:00,
2013-05-18 20:11:00,82.2,71.0,29.74,South,169,7.0,12.0,69,0.00,,,0.00,VWS V14.01,2013-05-19 01:11:00,
2013-05-18 20:16:00,81.8,71.1,29.74,SSE,168,5.0,12.0,70,0.00,,,0.00,VWS V14.01,2013-05-19 01:16:00,
2013-05-18 20:21:00,81.6,70.9,29.74,ESE,116,0.0,12.0,70,0.00,,,0.00,VWS V14.01,2013-05-19 01:21:00,
2013-05-18 20:26:00,81.4,70.7,29.74,SE,128,0.0,12.0,70,0.00,,,0.00,VWS V14.01,2013-05-19 01:26:00,
2013-05-18 20:31:00,81.2,70.9,29.73,SE,143,12.0,12.0,71,0.00,,,0.00,VWS V14.01,2013-05-19 01:31:00,
2013-05-18 20:36:00,81.1,70.8,29.73,ENE,76,5.0,12.0,71,0.00,,,0.00,VWS V14.01,2013-05-19 01:36:00,
2013-05-18 20:41:00,80.9,71.0,29.73,ESE,110,2.0,12.0,72,0.00,,,0.00,VWS V14.01,2013-05-19 01:41:00,
2013-05-18 20:46:00,80.7,71.2,29.72,ESE,110,3.0,12.0,73,0.00,,,0.00,VWS V14.01,2013-05-19 01:46:00,
2013-05-18 20:51:00,80.5,70.7,29.72,ESE,117,5.0,12.0,72,0.00,,,0.00,VWS V14.01,2013-05-19 01:51:00,
2013-05-18 20:56:00,80.3,70.5,29.72,East,90,5.0,12.0,72,0.00,,,0.00,VWS V14.01,2013-05-19 01:56:00,
2013-05-18 21:01:00,80.1,70.7,29.72,SSE,162,0.0,7.0,73,0.00,,BKN250,0.00,VWS V14.01,2013-05-19 02:01:00,
2013-05-18 21:06:00,80.1,70.7,29.72,SSW,195,0.0,10.0,73,0.00,,BKN250,0.00,VWS V14.01,2013-05-19 02:06:00,
2013-05-18 21:11:00,80.1,70.3,29.72,ESE,102,1.0,10.0,72,0.00,,BKN250,0.00,VWS V14.01,2013-05-19 02:11:00,
2013-05-18 21:16:00,80.3,70.5,29.72,SE,124,12.0,12.0,72,0.00,,BKN250,0.00,VWS V14.01,2013-05-19 02:16:00,
2013-05-18 21:21:00,80.3,70.5,29.72,ENE,58,1.0,14.0,72,0.00,,BKN250,0.00,VWS V14.01,2013-05-19 02:21:00,
2013-05-18 21:26:00,80.3,70.9,29.72,South,171,0.0,17.0,73,0.00,,BKN250,0.00,VWS V14.01,2013-05-19 02:26:00,
2013-05-18 21:31:00,80.1,70.3,29.72,SSE,160,5.0,17.0,72,0.00,,BKN250,0.00,VWS V14.01,2013-05-19 02:31:00,
2013-05-18 21:37:00,79.9,70.5,29.72,SE,137,2.0,17.0,73,0.00,,BKN250,0.00,VWS V14.01,2013-05-19 02:37:00,
2013-05-18 21:42:00,79.8,70.4,29.72,South,178,0.0,17.0,73,0.00,,BKN250,0.00,VWS V14.01,2013-05-19 02:42:00,
2013-05-18 21:47:00,79.6,70.2,29.74,East,83,0.0,17.0,73,0.00,,BKN250,0.00,VWS V14.01,2013-05-19 02:47:00,
2013-05-18 21:52:00,79.4,70.4,29.74,East,88,3.0,17.0,74,0.00,,BKN250,0.00,VWS V14.01,2013-05-19 02:52:00,
2013-05-18 21:57:00,79.4,70.4,29.74,East,92,2.0,17.0,74,0.00,,BKN250,0.00,VWS V14.01,2013-05-19 02:57:00,
2013-05-18 22:02:00,79.6,70.6,29.75,ENE,64,2.0,6.0,74,0.00,,BKN250,0.00,VWS V14.01,2013-05-19 03:02:00,
2013-05-18 22:07:00,79.6,70.6,29.75,SE,137,7.0,12.0,74,0.00,,BKN250,0.00,VWS V14.01,2013-05-19 03:07:00,
2013-05-18 22:12:00,79.4,70.4,29.75,SSE,150,1.0,12.0,74,0.00,,BKN250,0.00,VWS V14.01,2013-05-19 03:12:00,
2013-05-18 22:17:00,79.4,70.4,29.76,East,86,0.0,12.0,74,0.00,,BKN250,0.00,VWS V14.01,2013-05-19 03:17:00,
2013-05-18 22:22:00,79.2,70.6,29.76,SE,141,2.0,12.0,75,0.00,,BKN250,0.00,VWS V14.01,2013-05-19 03:22:00,
2013-05-18 22:27:00,79.2,70.6,29.76,SE,144,0.0,12.0,75,0.00,,BKN250,0.00,VWS V14.01,2013-05-19 03:27:00,
2013-05-18 22:32:00,79.0,70.4,29.77,ESE,103,0.0,12.0,75,0.00,,BKN250,0.00,VWS V14.01,2013-05-19 03:32:00,
2013-05-18 22:37:00,78.8,70.6,29.77,SE,126,5.0,12.0,76,0.00,,BKN250,0.00,VWS V14.01,2013-05-19 03:37:00,
2013-05-18 22:42:00,78.8,70.6,29.77,East,83,1.0,12.0,76,0.00,,BKN250,0.00,VWS V14.01,2013-05-19 03:42:00,
2013-05-18 22:47:00,78.6,70.4,29.78,SSE,162,0.0,12.0,76,0.00,,BKN250,0.00,VWS V14.01,2013-05-19 03:47:00,
2013-05-18 22:52:00,78.6,70.4,29.78,SE,141,0.0,12.0,76,0.00,,BKN250,0.00,VWS V14.01,2013-05-19 03:52:00,
2013-05-18 22:57:00,78.6,70.4,29.78,ESE,116,1.0,12.0,76,0.00,,BKN250,0.00,VWS V14.01,2013-05-19 03:57:00,
2013-05-18 23:01:00,78.6,70.4,29.77,ESE,123,0.0,2.0,76,0.00,,OVC250,0.00,VWS V14.01,2013-05-19 04:01:00,
2013-05-18 23:02:00,78.6,70.4,29.77,ESE,121,2.0,2.0,76,0.00,,OVC250,0.00,VWS V14.01,2013-05-19 04:02:00,
2013-05-18 23:04:00,78.5,70.3,29.77,South,172,0.0,5.0,76,0.00,,OVC250,0.00,VWS V14.01,2013-05-19 04:04:00,
2013-05-18 23:05:00,78.5,70.3,29.77,SSE,162,0.0,5.0,76,0.00,,OVC250,0.00,VWS V14.01,2013-05-19 04:05:00,
2013-05-18 23:10:00,78.5,70.3,29.77,SE,137,0.0,7.0,76,0.00,,OVC250,0.00,VWS V14.01,2013-05-19 04:10:00,
2013-05-18 23:15:00,78.3,70.5,29.78,ESE,103,0.0,7.0,77,0.00,,OVC250,0.00,VWS V14.01,2013-05-19 04:15:00,
2013-05-18 23:20:00,78.3,70.5,29.78,SSW,210,0.0,7.0,77,0.00,,OVC250,0.00,VWS V14.01,2013-05-19 04:20:00,
2013-05-18 23:25:00,78.1,70.3,29.78,SSW,210,3.0,7.0,77,0.00,,OVC250,0.00,VWS V14.01,2013-05-19 04:25:00,
2013-05-18 23:30:00,78.1,70.3,29.78,South,185,5.0,7.0,77,0.00,,OVC250,0.00,VWS V14.01,2013-05-19 04:30:00,
2013-05-18 23:35:00,77.9,70.5,29.78,SSW,195,0.0,7.0,78,0.00,,OVC250,0.00,VWS V14.01,2013-05-19 04:35:00,
2013-05-18 23:40:00,77.7,70.3,29.78,SSE,147,0.0,7.0,78,0.00,,OVC250,0.00,VWS V14.01,2013-05-19 04:40:00,
2013-05-18 23:45:00,77.6,70.6,29.78,SE,140,3.0,7.0,79,0.00,,OVC250,0.00,VWS V14.01,2013-05-19 04:45:00,
2013-05-18 23:50:00,77.6,70.6,29.78,ESE,110,0.0,7.0,79,0.00,,OVC250,0.00,VWS V14.01,2013-05-19 04:50:00,
2013-05-18 23:56:00,77.6,70.6,29.78,SSE,167,0.0,7.0,79,0.00,,OVC250,0.00,VWS V14.01,2013-05-19 04:56:00,